Weather History for KAXS - April, 2014

Change the Weather History Date:

Thursday, April 24, 2014

  Actual Average (KLTS) Record (KLTS)
Temperature  
Mean Temperature 68 °F -  
Max Temperature 79 °F 73 °F 94 °F (2012)
Min Temperature 58 °F 49 °F 27 °F (2013)
Cooling Degree Days 4    
Growing Degree Days 18 (Base 50)    
Moisture  
Dew Point 42 °F    
Average Humidity 41    
Maximum Humidity 77    
Minimum Humidity 15    
Precipitation  
Precipitation 0.01 in - - ()
Sea Level Pressure  
Sea Level Pressure 29.83 in    
Wind  
Wind Speed 21 mph (North)    
Max Wind Speed 37 mph    
Max Gust Speed 43 mph    
Visibility 10 miles    
Events      
Averages and records for this station are not official NWS values.
T = Trace of Precipitation, MM = Missing Value Source: NWS Daily Summary

Daily Weather History Graph

Daily Weather History Graph

Search for Another Location

Airport or City:

Trip Planner

Search our weather history database for the weather conditions in past years. The results will help you decide how hot, cold, wet, or windy it might be!

Date:

Astronomy

Apr. 24, 2014 Rise Set
Actual Time 6:54 AM CDT 8:16 PM CDT
Civil Twilight 6:28 AM CDT 8:43 PM CDT
Nautical Twilight 5:56 AM CDT 9:15 PM CDT
Astronomical Twilight 5:23 AM CDT 9:48 PM CDT
Moon 3:54 AM CDT (4/24) 3:45 PM CDT (4/24)
Length of Visible Light 14h 15m
Length of Day
13h 22m
Waning Crescent, 24% of the Moon is Illuminated
Apr 24
Waning Crescent
Apr 29
New
May 6
First Quarter
May 14
Full
May 21
Last Quarter

Hourly Weather History & Observations

Time (CDT) Temp. Dew Point Humidity Pressure Visibility Wind Dir Wind Speed Gust Speed Precip Events Conditions
12:15 AM 71.8 °F 57.9 °F 62% 29.65 in 10.0 mi SE 21.9 mph 25.3 mph N/A   Clear
12:35 AM 71.6 °F 59.4 °F 65% 29.65 in 10.0 mi SSE 20.7 mph 31.1 mph N/A   Clear
12:55 AM 71.8 °F 59.9 °F 66% 29.65 in 10.0 mi SSE 27.6 mph 32.2 mph N/A   Clear
1:15 AM 72.5 °F 59.9 °F 64% 29.65 in 10.0 mi SSE 29.9 mph 38.0 mph N/A   Clear
1:35 AM 71.8 °F 59.9 °F 66% 29.64 in 10.0 mi SSE 27.6 mph 35.7 mph N/A   Clear
1:55 AM 71.6 °F 59.9 °F 66% 29.63 in 10.0 mi SSE 25.3 mph 34.5 mph N/A   Clear
2:15 AM 71.1 °F 59.5 °F 67% 29.62 in 10.0 mi SSE 25.3 mph 34.5 mph N/A   Clear
2:35 AM 70.9 °F 59.5 °F 67% 29.63 in 10.0 mi SSE 23.0 mph 32.2 mph N/A   Clear
2:55 AM 70.7 °F 59.7 °F 68% 29.62 in 10.0 mi SSE 24.2 mph 31.1 mph N/A   Clear
3:20 AM 70.9 °F 60.1 °F 69% 29.61 in 10.0 mi South 24.2 mph 29.9 mph N/A   Clear
3:35 AM 70.5 °F 60.1 °F 69% 29.62 in 10.0 mi South 17.3 mph 33.4 mph N/A   Clear
3:55 AM 70.2 °F 60.4 °F 71% 29.62 in 10.0 mi South 23.0 mph 29.9 mph N/A   Clear
4:15 AM 70.0 °F 60.6 °F 72% 29.63 in 10.0 mi South 20.7 mph 28.8 mph N/A   Clear
4:35 AM 69.3 °F 60.8 °F 74% 29.63 in 10.0 mi SSW 18.4 mph 23.0 mph N/A   Clear
4:55 AM 68.4 °F 60.4 °F 76% 29.64 in 10.0 mi SSW 13.8 mph - N/A   Clear
5:15 AM 67.6 °F 60.3 °F 77% 29.65 in 10.0 mi SW 11.5 mph - N/A   Clear
5:35 AM 67.3 °F 57.7 °F 71% 29.67 in 10.0 mi West 16.1 mph - N/A   Scattered Clouds
5:55 AM 65.3 °F 50.4 °F 58% 29.68 in 5.0 mi NW 20.7 mph 26.5 mph N/A   Haze
6:15 AM 63.9 °F 47.5 °F 55% 29.70 in 4.0 mi NW 13.8 mph 20.7 mph N/A   Haze
6:35 AM 63.1 °F 49.8 °F 62% 29.68 in 5.0 mi North 12.7 mph - N/A   Haze
6:55 AM 61.9 °F 50.9 °F 67% 29.68 in 7.0 mi NNE 6.9 mph - N/A   Overcast
7:15 AM 62.8 °F 51.6 °F 67% 29.76 in 10.0 mi West 20.7 mph 28.8 mph N/A   Mostly Cloudy
7:40 AM 62.2 °F 49.5 °F 63% 29.78 in 10.0 mi NW 19.6 mph 26.5 mph N/A   Clear
7:55 AM 61.3 °F 48.9 °F 64% 29.79 in 10.0 mi NNW 27.6 mph 32.2 mph N/A   Clear
8:15 AM 62.1 °F 48.4 °F 61% 29.80 in 10.0 mi NNW 26.5 mph 32.2 mph N/A   Clear
8:35 AM 62.8 °F 47.8 °F 58% 29.82 in 10.0 mi NNW 27.6 mph 34.5 mph N/A   Clear
8:55 AM 63.7 °F 43.9 °F 48% 29.83 in 10.0 mi NNW 31.1 mph 39.1 mph N/A   Clear
9:15 AM 65.3 °F 41.2 °F 41% 29.84 in 10.0 mi NNW 34.5 mph 42.6 mph N/A   Clear
9:35 AM 66.6 °F 37.9 °F 35% 29.85 in 10.0 mi NNW 36.8 mph 42.6 mph N/A   Clear
9:55 AM 67.6 °F 37.0 °F 32% 29.86 in 10.0 mi NNW 31.1 mph 42.6 mph N/A   Clear
10:15 AM 69.3 °F 36.0 °F 29% 29.87 in 10.0 mi NNW 31.1 mph 39.1 mph N/A   Clear
10:40 AM 69.8 °F 35.8 °F 29% 29.88 in 10.0 mi NNW 29.9 mph 41.4 mph N/A   Clear
10:55 AM 70.5 °F 36.0 °F 28% 29.88 in 10.0 mi NNW 31.1 mph 35.7 mph N/A   Clear
11:20 AM 71.1 °F 36.7 °F 28% 29.90 in 10.0 mi NNW 28.8 mph 34.5 mph N/A   Clear
11:35 AM 71.8 °F 36.5 °F 28% 29.91 in 10.0 mi North 27.6 mph 35.7 mph N/A   Clear
11:55 AM 72.0 °F 36.5 °F 27% 29.91 in 10.0 mi NNW 28.8 mph 33.4 mph N/A   Clear
12:15 PM 73.6 °F 36.0 °F 25% 29.92 in 10.0 mi North 27.6 mph 34.5 mph N/A   Clear
12:40 PM 75.0 °F 36.5 °F 25% 29.92 in 10.0 mi NNW 24.2 mph 31.1 mph N/A   Clear
12:55 PM 75.0 °F 36.7 °F 25% 29.92 in 10.0 mi North 21.9 mph 31.1 mph N/A   Clear
1:20 PM 76.6 °F 37.9 °F 25% 29.92 in 10.0 mi NNW 26.5 mph 32.2 mph N/A   Clear
1:35 PM 77.0 °F 37.0 °F 24% 29.92 in 10.0 mi NW 21.9 mph 29.9 mph N/A   Clear
1:55 PM 77.2 °F 36.9 °F 23% 29.93 in 10.0 mi NNW 20.7 mph 27.6 mph N/A   Clear
2:20 PM 77.9 °F 35.8 °F 22% 29.92 in 10.0 mi NNW 19.6 mph 27.6 mph N/A   Clear
2:40 PM 78.1 °F 34.9 °F 21% 29.92 in 10.0 mi NNW 17.3 mph 31.1 mph N/A   Clear
2:55 PM 77.7 °F 33.4 °F 20% 29.92 in 10.0 mi NNW 19.6 mph 26.5 mph N/A   Clear
3:20 PM 78.3 °F 32.0 °F 19% 29.92 in 10.0 mi NW 17.3 mph 28.8 mph N/A   Clear
3:35 PM 77.5 °F 32.7 °F 20% 29.92 in 10.0 mi North 17.3 mph 21.9 mph N/A   Clear
3:55 PM 79.0 °F 31.8 °F 18% 29.91 in 10.0 mi NNW 16.1 mph 27.6 mph N/A   Clear
4:20 PM 79.0 °F 30.4 °F 17% 29.91 in 10.0 mi NNW 16.1 mph 21.9 mph N/A   Clear
4:35 PM 78.8 °F 29.8 °F 17% 29.90 in 10.0 mi North 11.5 mph 28.8 mph N/A   Clear
4:55 PM 79.2 °F 28.2 °F 15% 29.90 in 10.0 mi NNW 15.0 mph 23.0 mph N/A   Clear
5:15 PM 79.3 °F 28.0 °F 15% 29.91 in 10.0 mi WNW 10.4 mph 19.6 mph N/A   Clear
5:35 PM 79.2 °F 28.0 °F 15% 29.90 in 10.0 mi NNW 12.7 mph 24.2 mph N/A   Clear
5:55 PM 79.3 °F 27.5 °F 15% 29.90 in 10.0 mi NNW 18.4 mph 26.5 mph N/A   Clear
6:15 PM 79.0 °F 27.7 °F 15% 29.91 in 10.0 mi NW 12.7 mph 18.4 mph N/A   Clear
6:35 PM 78.3 °F 27.3 °F 15% 29.91 in 10.0 mi NW 15.0 mph 18.4 mph N/A   Clear
6:55 PM 77.5 °F 27.3 °F 16% 29.91 in 10.0 mi North 15.0 mph - N/A   Clear
7:20 PM 75.9 °F 27.9 °F 17% 29.92 in 10.0 mi NNE 11.5 mph 16.1 mph N/A   Clear
7:35 PM 74.5 °F 28.6 °F 18% 29.92 in 10.0 mi North 9.2 mph - N/A   Clear
7:55 PM 70.9 °F 29.3 °F 21% 29.93 in 10.0 mi North 6.9 mph - N/A   Clear
8:20 PM 67.6 °F 31.6 °F 26% 29.93 in 10.0 mi NE 6.9 mph - N/A   Clear
8:35 PM 66.9 °F 31.1 °F 26% 29.94 in 10.0 mi ENE 5.8 mph - N/A   Clear
9:20 PM 66.7 °F 31.6 °F 27% 29.95 in 10.0 mi East 6.9 mph - N/A   Clear
9:35 PM 65.5 °F 32.0 °F 29% 29.96 in 10.0 mi East 6.9 mph - N/A   Clear
9:55 PM 63.3 °F 32.5 °F 32% 29.96 in 10.0 mi East 6.9 mph - N/A   Clear
10:15 PM 60.8 °F 34.3 °F 37% 29.97 in 10.0 mi ESE 4.6 mph - N/A   Clear
10:35 PM 59.5 °F 34.7 °F 39% 29.97 in 10.0 mi East 6.9 mph - N/A   Clear
10:55 PM 59.5 °F 34.2 °F 39% 29.97 in 10.0 mi East 5.8 mph - N/A   Clear
11:20 PM 59.0 °F 34.2 °F 39% 29.97 in 10.0 mi East 6.9 mph - N/A   Clear
11:35 PM 58.3 °F 34.7 °F 41% 29.97 in 10.0 mi ESE 5.8 mph - N/A   Clear
11:55 PM 58.5 °F 34.7 °F 41% 29.97 in 10.0 mi SE 6.9 mph - N/A   Clear